Weather History for Farmville, VA

Change the Weather History Date:

Tuesday, May 6, 2014

  Actual Average Record
Temperature  
Mean Temperature 60 °F -  
Max Temperature 69 °F 77 °F 95 °F (1950)
Min Temperature 51 °F 49 °F 35 °F (1954)
Degree Days  
Heating Degree Days 5    
Growing Degree Days 10 (Base 50)    
Moisture  
Dew Point 55 °F    
Average Humidity 80    
Maximum Humidity 100    
Minimum Humidity 56    
Precipitation  
Precipitation 0.01 in - - ()
Sea Level Pressure  
Sea Level Pressure 29.94 in    
Wind  
Wind Speed 1 mph (SE)    
Max Wind Speed 7 mph    
Max Gust Speed -    
Visibility 9 miles    
Events Thunderstorm    
Averages and records for this station are not official NWS values.
T = Trace of Precipitation, MM = Missing Value Source: NWS Daily Summary

Daily Weather History Graph

Daily Weather History Graph

Search for Another Location

Airport:

Trip Planner

Search our weather history database for the weather conditions in past years. The results will help you decide how hot, cold, wet, or windy it might be!

Date:

Astronomy

May. 06, 2014 Rise Set
Actual Time 6:13 AM EDT 8:07 PM EDT
Civil Twilight 5:44 AM EDT 8:36 PM EDT
Nautical Twilight 5:10 AM EDT 9:11 PM EDT
Astronomical Twilight 4:33 AM EDT 9:48 PM EDT
Moon 12:26 PM EDT (5/6) 1:27 AM EDT (5/6)
Length of Visible Light 14h 51m
Length of Day
13h 54m
Waxing Crescent, 46% of the Moon is Illuminated
May 6
Waxing Crescent
May 6
First Quarter
May 14
Full
May 21
Last Quarter
May 28
New

Hourly Weather History & Observations

Time (EDT) Temp. Dew Point Humidity Pressure Visibility Wind Dir Wind Speed Gust Speed Precip Events Conditions
12:15 AM 51.8 °F 51.8 °F 100% 29.92 in 4.0 mi Calm Calm - N/A   Clear
12:35 AM 51.8 °F 50.0 °F 94% 29.92 in 5.0 mi Calm Calm - N/A   Mostly Cloudy
12:55 AM 51.8 °F 51.8 °F 100% 29.93 in 5.0 mi Calm Calm - N/A   Overcast
1:15 AM 53.6 °F 51.8 °F 94% 29.92 in 4.0 mi Calm Calm - N/A   Overcast
1:35 AM 53.6 °F 51.8 °F 94% 29.91 in 5.0 mi Calm Calm - N/A Thunderstorm Overcast
1:55 AM 53.6 °F 53.6 °F 100% 29.90 in 7.0 mi Calm Calm - N/A   Overcast
2:15 AM 53.6 °F 53.6 °F 100% 29.89 in 7.0 mi Calm Calm - N/A   Overcast
2:35 AM 53.6 °F 53.6 °F 100% 29.89 in 7.0 mi Calm Calm - 0.01 in   Overcast
2:55 AM 53.6 °F 53.6 °F 100% 29.88 in 5.0 mi Calm Calm - N/A   Overcast
3:15 AM 53.6 °F 51.8 °F 94% 29.88 in 7.0 mi Calm Calm - N/A   Overcast
3:35 AM 53.6 °F 53.6 °F 100% 29.89 in 7.0 mi NNE 3.5 mph - N/A   Overcast
7:55 AM 55.4 °F 53.6 °F 94% 29.92 in 10.0 mi Calm Calm - N/A   Overcast
8:15 AM 55.4 °F 55.4 °F 100% 29.93 in 10.0 mi Calm Calm - N/A   Overcast
8:35 AM 55.4 °F 55.4 °F 100% 29.94 in 10.0 mi Calm Calm - N/A   Overcast
8:55 AM 57.2 °F 55.4 °F 94% 29.94 in 10.0 mi North 3.5 mph - N/A   Overcast
9:15 AM 59.0 °F 55.4 °F 88% 29.94 in 10.0 mi Calm Calm - N/A   Overcast
10:15 AM 60.8 °F 51.8 °F 72% 29.95 in 10.0 mi NE 3.5 mph - N/A   Overcast
10:35 AM 60.8 °F 51.8 °F 72% 29.96 in 10.0 mi Calm Calm - N/A   Overcast
10:55 AM 62.6 °F 51.8 °F 68% 29.95 in 10.0 mi SE 3.5 mph - N/A   Overcast
11:15 AM 62.6 °F 53.6 °F 72% 29.96 in 7.0 mi SE 3.5 mph - N/A   Overcast
11:30 AM 62.6 °F 51.8 °F 68% 29.95 in 10.0 mi Calm Calm - N/A   Overcast
11:55 AM 64.4 °F 53.6 °F 68% 29.95 in 10.0 mi SE 3.5 mph - N/A   Mostly Cloudy
12:15 PM 64.4 °F 51.8 °F 64% 29.95 in 10.0 mi Calm Calm - N/A   Mostly Cloudy
12:35 PM 64.4 °F 53.6 °F 68% 29.94 in 10.0 mi ESE 5.8 mph - N/A   Mostly Cloudy
12:55 PM 66.2 °F 53.6 °F 64% 29.94 in 10.0 mi Calm Calm - N/A   Scattered Clouds
1:15 PM 66.2 °F 53.6 °F 64% 29.94 in 10.0 mi SSE 4.6 mph - N/A   Scattered Clouds
1:35 PM 66.2 °F 53.6 °F 64% 29.94 in 10.0 mi Calm Calm - N/A   Mostly Cloudy
1:55 PM 66.2 °F 53.6 °F 64% 29.94 in 10.0 mi Calm Calm - N/A   Overcast
2:15 PM 66.2 °F 53.6 °F 64% 29.94 in 10.0 mi Calm Calm - N/A   Scattered Clouds
2:35 PM 68.0 °F 55.4 °F 64% 29.94 in 10.0 mi Calm Calm - N/A   Clear
2:55 PM 68.0 °F 53.6 °F 60% 29.93 in 10.0 mi Calm Calm - N/A   Clear
3:15 PM 68.0 °F 55.4 °F 64% 29.92 in 10.0 mi Calm Calm - N/A   Clear
3:35 PM 68.0 °F 55.4 °F 64% 29.91 in 10.0 mi SSE 4.6 mph - N/A   Clear
4:15 PM 68.0 °F 55.4 °F 64% 29.91 in 10.0 mi South 6.9 mph - N/A   Clear
4:35 PM 69.8 °F 55.4 °F 60% 29.92 in 10.0 mi South 4.6 mph - N/A   Clear
4:55 PM 69.8 °F 55.4 °F 60% 29.92 in 10.0 mi South 5.8 mph - N/A   Clear
5:15 PM 68.0 °F 55.4 °F 64% 29.92 in 10.0 mi South 4.6 mph - N/A   Clear
5:35 PM 69.8 °F 55.4 °F 60% 29.93 in 10.0 mi SSW 3.5 mph - N/A   Clear
5:55 PM 69.8 °F 55.4 °F 60% 29.94 in 10.0 mi Calm Calm - N/A   Clear
6:15 PM 69.8 °F 53.6 °F 56% 29.93 in 10.0 mi Calm Calm - N/A   Clear
6:35 PM 69.8 °F 55.4 °F 60% 29.93 in 10.0 mi ENE 3.5 mph - N/A   Mostly Cloudy
6:55 PM 69.8 °F 55.4 °F 60% 29.93 in 10.0 mi East 4.6 mph - N/A   Overcast
7:15 PM 69.8 °F 55.4 °F 60% 29.94 in 10.0 mi Calm Calm - N/A   Overcast
7:35 PM 68.0 °F 55.4 °F 64% 29.94 in 10.0 mi Calm Calm - N/A   Scattered Clouds
7:55 PM 62.6 °F 57.2 °F 82% 29.95 in 10.0 mi Calm Calm - N/A   Mostly Cloudy
8:15 PM 62.6 °F 57.2 °F 82% 29.96 in 10.0 mi Calm Calm - N/A   Mostly Cloudy
8:35 PM 62.6 °F 57.2 °F 82% 29.97 in 10.0 mi Calm Calm - N/A   Mostly Cloudy
8:55 PM 62.6 °F 57.2 °F 82% 29.97 in 10.0 mi Calm Calm - N/A   Overcast
9:15 PM 60.8 °F 60.8 °F 100% 29.98 in 10.0 mi Calm Calm - N/A   Mostly Cloudy
9:35 PM 60.8 °F 60.8 °F 100% 29.99 in 10.0 mi Calm Calm - N/A   Overcast
9:55 PM 60.8 °F 60.8 °F 100% 29.99 in 10.0 mi Calm Calm - N/A   Overcast
10:15 PM 60.8 °F 60.8 °F 100% 30.00 in 10.0 mi Calm Calm - N/A   Overcast
10:35 PM 59.0 °F 57.2 °F 94% 30.01 in 10.0 mi Calm Calm - N/A   Scattered Clouds
10:55 PM 57.2 °F 57.2 °F 100% 30.01 in 7.0 mi Calm Calm - N/A   Clear
11:15 PM 59.0 °F 57.2 °F 94% 30.01 in 7.0 mi Calm Calm - N/A   Clear
11:55 PM 59.0 °F 57.2 °F 94% 30.02 in 10.0 mi North 3.5 mph - N/A   Clear